AEE2MK LGMK-LGAV

Flight info

Callsign AEE2MK
Flight time N/A
Altitude 16000
Route VARIX
Aircraft A320/M-SDE3FGHIRWY/LB1

Departure

Time 2026-05-09 16:12
Airport Mykonos Island National Airport (LGMK)

Arrival

Time N/A
Airport Athens Eleftherios Venizelos International Airport (LGAV)
Time Latitude Longitude Altitude Speed Heading
2026-05-09 15:16 37.43579 25.34612 405 ft 0 kts 251°
2026-05-09 15:50 37.43584 25.34631 405 ft 4 kts 250°
2026-05-09 15:50 37.43590 25.34652 403 ft 4 kts 259°
2026-05-09 15:51 37.43590 25.34675 403 ft 3 kts 336°
2026-05-09 15:51 37.43587 25.34677 403 ft 0 kts 341°
2026-05-09 15:55 37.43588 25.34676 408 ft 1 kts 341°
2026-05-09 15:55 37.43590 25.34676 408 ft 0 kts 342°
2026-05-09 16:05 37.43590 25.34675 408 ft 0 kts 342°
2026-05-09 16:05 37.43592 25.34675 408 ft 0 kts 342°
2026-05-09 16:07 37.43600 25.34673 408 ft 2 kts 350°
2026-05-09 16:07 37.43612 25.34675 408 ft 3 kts 11°
2026-05-09 16:07 37.43637 25.34688 408 ft 4 kts 29°
2026-05-09 16:08 37.43659 25.34710 407 ft 4 kts 50°
2026-05-09 16:08 37.43655 25.34750 411 ft 8 kts 128°
2026-05-09 16:08 37.43595 25.34785 408 ft 11 kts 159°
2026-05-09 16:08 37.43510 25.34823 406 ft 15 kts 160°
2026-05-09 16:09 37.43419 25.34864 411 ft 15 kts 160°
2026-05-09 16:09 37.43317 25.34909 413 ft 16 kts 160°
2026-05-09 16:09 37.43208 25.34958 409 ft 16 kts 160°
2026-05-09 16:09 37.43095 25.35008 413 ft 18 kts 160°
2026-05-09 16:10 37.42970 25.35063 414 ft 20 kts 161°
2026-05-09 16:10 37.42826 25.35127 411 ft 21 kts 161°
2026-05-09 16:10 37.42760 25.35137 410 ft 10 kts 193°
2026-05-09 16:10 37.42715 25.35148 410 ft 2 kts 137°
2026-05-09 16:11 37.42727 25.35173 410 ft 1 kts 343°
2026-05-09 16:11 37.42756 25.35159 410 ft 7 kts 339°
2026-05-09 16:11 37.42800 25.35139 411 ft 0 kts 340°
2026-05-09 16:11 37.42801 25.35138 411 ft 2 kts 340°
2026-05-09 16:12 37.43054 25.35026 412 ft 81 kts 341°
2026-05-09 16:12 37.43816 25.34687 411 ft 148 kts 340°
2026-05-09 16:12 37.44894 25.34221 791 ft 166 kts 340°
2026-05-09 16:12 37.45970 25.33751 1494 ft 166 kts 337°
2026-05-09 16:13 37.46925 25.33004 2147 ft 162 kts 310°
2026-05-09 16:13 37.47469 25.31752 2567 ft 168 kts 277°
2026-05-09 16:13 37.47604 25.30213 2946 ft 188 kts 271°
2026-05-09 16:13 37.47739 25.28468 3250 ft 213 kts 272°
2026-05-09 16:14 37.47903 25.26498 3654 ft 238 kts 273°
2026-05-09 16:14 37.48094 25.24328 4206 ft 258 kts 273°
2026-05-09 16:14 37.48267 25.22043 5096 ft 263 kts 267°
2026-05-09 16:14 37.47906 25.19800 6025 ft 263 kts 250°
2026-05-09 16:15 37.47431 25.17561 6950 ft 267 kts 264°
2026-05-09 16:15 37.47676 25.15274 7820 ft 272 kts 290°
2026-05-09 16:15 37.48756 25.13294 8725 ft 279 kts 312°
2026-05-09 16:15 37.50190 25.11625 9589 ft 284 kts 315°
2026-05-09 16:16 37.51679 25.09985 9908 ft 284 kts 315°
2026-05-09 16:16 37.53172 25.08360 9999 ft 283 kts 315°
2026-05-09 16:16 37.53678 25.07811 10014 ft 283 kts 315°